Regional Weather Roundup
Issued by NWS

Current Version | Previous Version | Text Only | Print | Product List | Glossary On
Versions: 1 2 3 4 5 6 7 8 9 10 11 12 13 14 15 16 17 18 19 20 21 22 23 24 25 26 27 28 29 30 31 32 33 34 35 36 37 38 39 40 41 42 43 44 45 46 47 48 49 50
000
ASUS44 KMEG 232210
RWRTN
TENNESSEE HOURLY STATE WEATHER ROUNDUP
NATIONAL WEATHER SERVICE MEMPHIS TN
500 PM CDT SUN APR 23 2017

TNZ002-004-019-021-049-052-054-088>092-232300-
WEST TENNESSEE

CITY           SKY/WX    TMP DP  RH WIND       PRES   REMARKS
MEMPHIS INTL   CLOUDY    58  51  78 N8        29.93F
NWS MEMPHIS      N/A     57 N/A N/A MISG        N/A
JACKSON        RAIN      55  51  86 N10G20    29.91S
DYERSBURG      CLOUDY    57  51  80 SE3       29.94R
SOMERVILLE     CLOUDY    55  52  88 NW6       29.91S
UNION CITY     MOSUNNY   57  52  82 CALM      29.91S FOG
BOLIVAR        PTSUNNY   54  50  87 NW7G15    29.90S
PARIS          CLOUDY    54  48  82 N7        29.90S
HUNTINGDON     CLOUDY    54  52  94 VRB6      29.90R FOG
LEXINGTON      PTSUNNY   50  50 100 N7        29.87S FOG
SAVANNAH       CLOUDY    50  48  93 N6        29.87S
$$

TNZ008-025-027-028-033-062-065-066-232300-
NORTH MIDDLE TENNESSEE

CITY           SKY/WX    TMP DP  RH WIND       PRES   REMARKS
NASHVILLE      RAIN      53  51  93 NW6       29.85R FOG
PORTLAND       PTSUNNY   52  50  93 N17G25    29.84S FOG
CLARKSVILLE    LGT RAIN  54  49  83 N7        29.89R
SMYRNA         LGT RAIN  52  50  93 N10       29.84S FOG
COOKEVILLE     CLOUDY    55  52  88 CALM      29.76F
GALLATIN       CLOUDY    54  50  87 N12G17    29.86S
CROSSVILLE     CLOUDY    54  52  93 NE9       29.77F
$$

TNZ061-075-076-078-094-096-097-232300-
SOUTH MIDDLE TENNESSEE

CITY           SKY/WX    TMP DP  RH WIND       PRES   REMARKS
FAYETTEVILLE     N/A     54  52  94 NW9G16    29.80R
TULLAHOMA      CLOUDY    50  48  93 NW10      29.80R
WINCHESTER     CLOUDY    54  54 100 NW6       29.79S
MCMINNVILLE    CLOUDY    54  54 100 N8        29.78F
COLUMBIA       CLOUDY   N/A N/A N/A VRB6      29.83S
SHELBYVILLE    CLOUDY    52  52 100 NW9       29.82R
$$

TNZ017-018-042-046-047-232300-
NORTHEAST TENNESSEE

CITY           SKY/WX    TMP DP  RH WIND       PRES   REMARKS
TRI CITIES     RAIN      50  49  96 NE5       29.88R FOG
ELIZABETHTON   LGT RAIN  54  50  87 VRB6      29.86R
$$

TNZ012-013-036-069-073-074-232300-
CENTRAL EAST TENNESSEE

CITY           SKY/WX    TMP DP  RH WIND       PRES   REMARKS
KNOXVILLE      LGT RAIN  56  54  93 NE17      29.77F FOG
OAK RIDGE      LGT RAIN  56  54  93 VRB6      29.80F
DOWNTOWN KNOXV PTSUNNY   57  55  94 CALM      29.81S FOG
GATLINBURG     CLOUDY    55  54  94 E8        29.80S
MORRISTOWN     CLOUDY    54  52  94 E10G16    29.83R FOG
JACKSBORO      CLOUDY    55  54  94 NE7       29.86S FOG
$$

TNZ083-085-099-232300-
SOUTHEAST TENNESSEE

CITY           SKY/WX    TMP DP  RH WIND       PRES   REMARKS
CHATTANOOGA    CLOUDY    63  59  87 CALM      29.75R
$$

SKY/WX REPORTED AS FAIR MEANS FEW OR NO CLOUDS BELOW
12 THOUSAND FEET.




USA.gov is the U.S. government's official web portal to all federal, state and local government web resources and services.